{"data":{"norad_id":67238,"intl_designator":"2025-311C","name":"HULIANWANG DIGUI-130","alt_names":[],"object_type":"PAYLOAD","status":"ACTIVE","operator":null,"country":"PRC","launch_date":"2025-12-25","launch_site_code":"WSC","launch_vehicle":null,"mission":null,"orbit_class":"UNKNOWN","rcs_meters":null,"size_class":null,"mass_kg":null,"dimensions":null,"purposes":[],"wikipedia_slug":null,"has_3d_model":false,"image_url":null,"decayed_at":null,"tle_current":{"epoch":"2026-09-19T23:18:59.455008Z","epoch_age_seconds":148779,"freshness":"FRESH","line1":"1 67238U 25311C   26262.97152147 -.00000105  00000+0  40916-4 0  9992","line2":"2 67238  50.0044 136.0762 0000196 329.7014  30.3846 13.29327303 35946","mean_motion":13.29327303,"eccentricity":1.96e-5,"inclination_deg":50.0044,"raan_deg":136.0762,"arg_perigee_deg":329.7014,"mean_anomaly_deg":30.3846,"bstar":4.0916e-5,"rev_number":3594,"period_min":108.32546632799,"perigee_km":1149.1541151469,"apogee_km":1149.4491907421,"semimajor_km":7527.4386529445,"source":"CELESTRAK","updated_at":"2026-09-21T09:00:16.508320Z"}}}